Showing default

QUBE2, 69023

Orbit data source: Space-Track

QUBE2, 69023 is a payload satellite owned by ZfT (DE) in SSO that was launched on Sun, 03 May 2026 UTC via an FALCON 9 launch vehicle from the Air Force Western Test Range (AFWTR). Payload-class satellites include a variety of spacecraft equipped with specific instruments for various scientific and technological missions. These include communications satellites like Starlink; space stations such as the ISS; scientific satellites like the Hubble; Earth observation satellites from companies like Planet Labs, Umbra, and HawkEye 360; GPS; miniature CubeSats for education and research; and military/defense satellites.

Loading next visibility...
Identifier
69023, 2026-100AV
Orbit
SSO
Country
Flag of DEDE / GER
Related business
Manufacturer
NanoAvionics
Mission
Operational Commercial Communications
Bus & Motor
CUBESAT 3U, Unknown motor
Mass
4 kg wet, 4 kg dry
Launch date (UTC)
2026-05-03 (4 months ago)
Launch vehicle
FALCON 9
Launch site
Air Force Western Test Range (AFWTR)
Object type
Payload
Rocket body
Debris
Shape & HBR
Box, 1.0 m
Radar Cross Section
0.035 m², Medium (>0.1 m² and < 1m²)

Expand to show TLE details & history
Last TLE update: 14 hours ago

TLE from 14 hours ago
0 QUBE2
1 69023U 26100AV  26255.15110897  .00005214  00000-0  23575-3 0  9998
2 69023  97.3949 151.4314 0004712  65.3993 294.7734 15.21347653 20028
Epoch: 2026-09-12T03:37Z
TLE epoch observation values (Epoch: 2026-09-12T03:37:35.815Z)
Latitude
0.00007°
Longitude
105.86793°
Altitude
503.51 km
Speed
7.613 km/s
True Right ascension
10h 05m 43s
True Declination
0° 00' 00"
Sunlit
Object was in daylight at epoch
Visualization orbit readout
Latitude
Unknown
Longitude
Unknown
Altitude
Unknown
Speed
Unknown
Apparent Right ascension
Unknown
Apparent Declination
Unknown
Sunlit
N/A
Visualization observer readout
Local Sidereal Time
09:59:52
Azimuth
Unknown
Elevation
Unknown
Doppler factor
Unknown
Orbital elements
Apogee altitude
501.979 km
Perigee altitude
495.498 km
Semi-major axis
6,876.875 km
Eccentricity
0.00047
Inclination
97.3949°
RAAN
151.4314°
Arg. of periapsis
65.3993°
True anomaly
294.72436°
Mean anomaly
294.7734°
Eccentric anomaly
294.74888°
Mean motion
3.80589 °/min
Orbital period
94.59 mins
BSTAR
0.00023575
Loading maneuver chart data...
Computing Atmospheric mass density...
Loading historical data...
Loading historical data...
Loading historical data...
Loading historical data...
Loading historical data...
Loading historical data...
Loading historical data...

Documentation

Showing up to 5 results
|